Torna al catalogo

STARLINK-5513

AttivoComunicazioniVLEO
NORAD 57251·PAYLOAD·🇺🇸 United States

Lanciato Jul 7, 2023 da Vandenberg Space Force Base

Loading…

Prossimi Passaggi (prossime 24 ore)

TLE

AggiornatoSource: CelesTrak SupGP

Epoca: Sep 15, 2026, 01:48 UTC

1 57251C 23094AK  26258.07548611 -.00051400  00000+0 -18617-2 0  2587
2 57251  43.0018  30.1370 0001634 263.0052 197.3717 15.27604176    19

Traccia STARLINK-5513 in tempo reale con AllMySat

Download on the App Store